User: anonymous   Login
Location: Newark
(25.3833°N, 97.4000°E)
Time: 13:26:26
(UTC+00:00)
Language:

UKube-1 - Orbit

View from above orbital plane
View from above orbital plane
View from above satellite
View from above satellite

Ground track
Ground track

The orbit data is extracted from the following two-line orbital elements,

1 40074U 14037F   20049.09747167  .00000263  00000-0  38695-4 0  9992
2 40074  98.4521 230.2747 0005006 133.2982 226.8644 14.84194407303909
Epoch (UTC): 18 February 2020 02:20:21
Eccentricity: 0.0005006
inclination: 98.4521°
perigee height: 612 km
apogee height: 619 km
right ascension of ascending node: 230.2747°
argument of perigee: 133.2982°
revolutions per day: 14.84194407
mean anomaly at epoch: 226.8644°
orbit number at epoch: 30390

The dashed part of the orbit path shows where the satellite is in the earth's shadow,  

DLR